This demonstration page uses our WeatherBlox Daily Observations layout. Learn more.

Left ArrowRight Arrow

39.95238, -75.16362

Hourly Observations for May 31, 2016

Temp ( °F °C ) Dew Point ( °F °C ) Humidity (%) Winds ( mph kmh ) Pressure ( in mb ) Visibility ( mi km ) Precip ( " mm )
12:26 am 00:26 Cloudy 71 21.7 67 19.4 87 87 SSW 8 13 29.97 1015 10 16 0.00 0.00
12:49 am 00:49 Cloudy 72 22 66 19 83 83 SSW 7 11 29.94 1014 10 16 0.00 0.00
12:54 am 00:54 Cloudy 71 21.7 67 19.4 87 87 SW 7 11 29.95 1014 10 16 0.00 0.00
1:47 am 01:47 Cloudy 71 21.7 67 19.4 87 87 SW 8 13 29.94 1014 10 16 0.00 0.00
1:54 am 01:54 Cloudy 72 22.2 67 19.4 84 84 SW 9 15 29.95 1014 10 16 0.00 0.00
2:54 am 02:54 Cloudy 72 22.2 67 19.4 84 84 SW 6 9 29.95 1014 10 16 0.00 0.00
3:43 am 03:43 Cloudy 71 21.7 67 19.4 87 87 S 5 7 29.94 1014 10 16 0.00 0.00
3:54 am 03:54 Cloudy 71 21.7 67 19.4 87 87 SSW 5 7 29.95 1014 10 16 0.00 0.00
4:54 am 04:54 Cloudy 71 21.7 67 19.4 87 87 SSW 5 7 29.94 1014 10 16 0.00 0.00
5:54 am 05:54 Cloudy 71 21.7 67 19.4 87 87 WSW 5 7 29.95 1014 10 16 0.00 0.00
5:58 am 05:58 Mostly Cloudy 71 21.7 67 19.4 87 87 SW 3 6 29.94 1014 10 16 0.00 0.00
6:54 am 06:54 Mostly Cloudy 70 21.1 67 19.4 90 90 W 6 9 29.95 1014 10 16 0.00 0.00
7:40 am 07:40 Partly Cloudy 71 21.7 67 19.4 87 87 SSW 6 9 29.97 1015 10 16 0.00 0.00
7:54 am 07:54 Mostly Cloudy 71 21.7 67 19.4 87 87 S 6 9 29.96 1015 10 16 0.00 0.00
8:54 am 08:54 Partly Cloudy 74 23.3 67 19.4 79 79 SSW 6 9 29.97 1015 10 16 0.00 0.00
9:54 am 09:54 Mostly Sunny 79 26.1 67 19.4 67 67 SE 5 7 29.96 1015 10 16 0.00 0.00
10:54 am 10:54 Mostly Sunny 82 27.8 59 15 46 46 NE 14 22 29.96 1015 10 16 0.00 0.00
11:54 am 11:54 Mostly Sunny 84 28.9 57 13.9 40 40 NE 8 13 29.96 1015 10 16 0.00 0.00
12:54 pm 12:54 Mostly Sunny 84 28.9 55 12.8 37 37 ENE 6 9 29.96 1015 10 16 0.00 0.00
1:54 pm 13:54 Partly Cloudy 87 30.6 57 13.9 36 36 NE 7 11 29.94 1014 10 16 0.00 0.00
2:54 pm 14:54 Partly Cloudy 87 30.6 55 12.8 34 34 VRB 6 9 29.93 1014 10 16 0.00 0.00
3:54 pm 15:54 Partly Cloudy 87 30.6 51 10.6 29 29 VRB 6 9 29.92 1013 10 16 0.00 0.00
4:54 pm 16:54 Partly Cloudy 87 30.6 49 9.4 27 27 NW 10 17 29.92 1013 10 16 0.00 0.00
5:54 pm 17:54 Partly Cloudy 86 30 49 9.4 28 28 NW 10 17 29.92 1013 10 16 0.00 0.00
6:54 pm 18:54 Partly Cloudy 85 29.4 49 9.4 29 29 NNW 5 7 29.93 1014 10 16 0.00 0.00
7:54 pm 19:54 Mostly Cloudy 84 28.9 50 10 31 31 NNW 7 11 29.93 1014 10 16 0.00 0.00
8:54 pm 20:54 Mostly Cloudy 84 28.9 51 10.6 32 32 WNW 5 7 29.95 1014 10 16 0.00 0.00
9:54 pm 21:54 Mostly Cloudy 74 23.3 64 17.8 71 71 S 8 13 29.98 1015 10 16 0.00 0.00
10:54 pm 22:54 Mostly Cloudy 74 23.3 65 18.3 74 74 SSW 7 11 29.98 1015 10 16 0.00 0.00
11:54 pm 23:54 Mostly Cloudy 73 22.8 64 17.8 74 74 SSW 5 7 29.99 1016 10 16 0.00 0.00

Powered by AerisWeather